STARLINK-32559, 61915

Orbit data source: Space-Track

STARLINK-32559, 61915 is a payload satellite owned by SpaceX/Seattle (US) in LEO that was launched on Mon, 11 Nov 2024 UTC via an FALCON 9 launch vehicle from the Air Force Eastern Test Range (AFETR). Payloads include a variety of satellites, spacecraft, and rockets equipped with specific instruments for various scientific and technological missions. These include communications satellites like Starlink; space stations such as the ISS; scientific satellites like the Hubble; Earth observation satellites from companies like Planet Labs, Umbra, and HawkEye 360; GPS; miniature CubeSats for education and research; and military/defense satellites.

Loading next visibility...
STARLINK-32559 details
Identifier
61915, 2024-207D
Orbit
LEO
Last TLE update5 hours ago
Origin
Flag of USSpaceX/Seattle (US)
ManufacturerSpaceX/Seattle
MissionOperational spacecraft
Bus & MotorSTARLINK V2M, Unknown motor
Mass730 kg wet, ~700 kg dry
Launch date (UTC)
2024-11-11 (1 week ago)
Launch vehicle
FALCON 9
Launch site
Air Force Eastern Test Range (AFETR)
Object type
Payload
Rocket body
Debris
Shape & HBRUnknown
Radar Cross SectionRCS unknown

Expand to show TLE details & history

TLE from 5 hours ago
0 STARLINK-32559
1 61915U 24207D   24326.16667824 -.00697559  00000-0 -24372-2 0  9997
2 61915  43.0028  92.9623 0001746 261.5559 239.1106 15.89868541  2686
Epoch: 2024-11-21T04:00Z
Definitive object data (Epoch: 2024-11-21T04:00:00.999Z)
Latitude25.71819°
Longitude121.40563°
Altitude303.179 km
Speed7.73 km/s
True Right ascension16h 08m 14s
True Declination25° 34' 30"
Sunlit
Object was in daylight at TLE epoch
Visualization TLE readout
Latitude26.63537°
Longitude118.8127°
Altitude304.166 km
Speed7.729 km/s
Apparent Right ascension16h 41m 03s
Apparent Declination-5° 51' 41"
Sunlit
Object is in daylight
Visualization observer readout
Local Sidereal Time05:33:54
Azimuth22.716° NE
Elevation-53.931°
Doppler factor1
Orbital elements
Apogee altitude305.815 km
Perigee altitude303.481 km
Semi-major axis6,682.785 km
Eccentricity0.0001746
Inclination43.0028°
RAAN92.9623°
Arg. of periapsis261.5559°
True anomaly239.09343°
Mean anomaly239.1106°
Eccentric anomaly239.10202°
Mean motion3.97289 °/min
BSTAR-0.0024372
Orbital period90.61 mins
Loading maneuver chart data...
Loading historical data...
Loading historical data...
Loading historical data...
Loading historical data...
Loading historical data...
Loading historical data...
Loading historical data...

STARLINK-32559 Visibility forecast

Observer location: undefined°, undefined

Span
Click to sort rows by Start time (UTC) header in descending order
Start Az.
Max El. time (UTC)
Max El. Az.
Max El.
End time (UTC)
End Az.
4 mins2024-11-21 12:42:01.805Z230.177° WSW2024-11-21 12:44:01.805Z131.178° SE37.496°2024-11-21 12:46:01.805Z79.605° E
|